Regional Weather Roundup
Issued by NWS Kansas City/Pleasant Hill, MO

Home | Current Version | Previous Version | Graphics & Text | Print | Product List | Glossary Off
Versions: 1 2 3 4 5 6 7 8 9 10 11 12 13 14 15 16 17 18 19 20 21 22 23 24 25 26 27 28 29 30 31 32 33 34 35 36 37 38 39 40 41 42 43 44 45 46 47 48 49 50

000
ASUS43 KEAX 230410
RWREAX

WEATHER ROUNDUP FOR EASTERN KANSAS AND NORTHWEST MISSOURI
NATIONAL WEATHER SERVICE KANSAS CITY/PLEASANT HILL MO
1100 PM CDT TUE JUL 22 2014

KSZ040-057-103>105-MOZ028-029-037-043-230500-
...KANSAS CITY METROPOLITAN AREA...

CITY           SKY/WX    TMP DP  RH WIND       PRES   REMARKS
K.C. INTL      CLEAR     86  77  74 NE3       30.05S HX  97
K.C. DOWNTOWN  CLEAR     88  77  69 CALM      30.02S HX 100
LEES SUMMIT    CLEAR     86  76  71 CALM      30.05S HX  96
OLATHE - IXD   CLEAR     86  75  69 E7        30.06R HX  95
OLATHE - OJC   CLEAR     86  75  69 NE7       30.05R HX  95
LAWRENCE       CLEAR     85  77  77 NE8       30.03F HAZE    HX  95

$$

MOZ001>008-011>017-020>025-030>033-038>040-044>046-053-054-230500-
...NORTHERN AND CENTRAL MISSOURI...

CITY           SKY/WX    TMP DP  RH WIND       PRES   REMARKS
ST. JOSEPH     PTCLDY    82  73  74 N15       30.08R
MOSBY          CLEAR     81  79  94 CALM      30.03S
WHITEMAN AFB   CLEAR     81  77  89 SE5       30.04R
CLINTON        CLEAR     81  79  94 CALM      30.04S FOG
SEDALIA        CLEAR     83  77  82 SE3       30.05S HAZE    HX  92
WARSAW         NOT AVBL
MARSHALL       CLEAR     84  82  94 SW3       30.03F FOG     HX 101
CHILLICOTHE      N/A     85  78  80 N5        30.05R HX  96
MOBERLY        PTCLDY    84  75  74 S5        30.02F HX  92
KIRKSVILLE     CLOUDY    81  76  84 N9        30.05R

$$

MOZ041-047>049-056>058-063>065-088>090-097-230500-
...EASTERN AND SOUTHERN MISSOURI...

CITY           SKY/WX    TMP DP  RH WIND       PRES   REMARKS
ST. LOUIS INTL CLOUDY    85  72  65 S7        30.02S HX  91
SPIRIT OF STL  MOCLDY    83  73  72 S7        29.99F
COLUMBIA       CLEAR     79  78  97 SW5       30.03F
JEFFERSON CITY CLEAR     83  78  85 CALM      30.01F HX  93
MEXICO         PTCLDY   N/A N/A N/A CALM      30.02S HAZE
HANNIBAL       MOCLDY    82  79  89 CALM      30.01S FOG     HX  93
ROLLA          CLEAR     80  72  76 SW9       30.05S
LEBANON        CLEAR     82  75  78 CALM      30.09S
OSAGE BEACH    CLEAR     81  75  83 CALM      30.05S
SPRINGFIELD    CLEAR     81  76  84 CALM      30.08R
BRANSON        MOCLDY    79  73  83 CALM      30.09S
NEVADA         CLEAR     81  75  83 S6        30.05S
JOPLIN         CLEAR     84  75  74 SW9       30.07R HX  92
WEST PLAINS    PTCLDY    76  70  82 CALM      30.10S
MALDEN         CLEAR     75  70  83 CALM      30.06F

$$

IAZ060-094-KSZ022-034>040-054-083-096-NEZ052-066-093-230500-
...KANSAS...SOUTHEAST NEBRASKA AND IOWA...

CITY           SKY/WX    TMP DP  RH WIND       PRES   REMARKS
TOPEKA         CLEAR     85  78  80 N3        30.05R HX  96
MANHATTAN      CLEAR     86  77  74 NE10      30.06R HX  97
EMPORIA        CLEAR     80  71  74 S7        30.05R
CHANUTE        CLEAR     81  75  82 S7        30.06R
WICHITA        CLEAR     81  73  76 S6        30.08R
OMAHA          PTCLDY    74  67  78 N7        30.14R
LINCOLN        CLEAR     74  68  81 N8        30.15R
FALLS CITY     CLEAR     79  72  79 N7        30.10R
LAMONI         PTCLDY    76  70  82 N9        30.10R
DES MOINES     PTCLDY    78  66  66 N9        30.10R

$$



USA.gov is the U.S. government's official web portal to all federal, state and local government web resources and services.